Torna al catalogo

STARLINK-34320

AttivoComunicazioniVLEO
NORAD 64217·PAYLOAD·🇺🇸 United States

Lanciato May 31, 2025 da Vandenberg Space Force Base

Loading…

Prossimi Passaggi (prossime 24 ore)

TLE

AggiornatoSource: CelesTrak SupGP

Epoca: Sep 15, 2026, 03:37 UTC

1 64217C 25117Q   26258.15118056 -.00047153  00000+0 -13933-2 0  2586
2 64217  53.1578 236.4992 0001393  89.6620  14.3784 15.34410784    18

Traccia STARLINK-34320 in tempo reale con AllMySat

Download on the App Store